Location: Rio Negrinho
(26.2394°S, 49.4999°W)
Time: 22:02:09
(UTC+00:00)

Cosmos 1812 - Pass Details

Date: 07 June 2020
Orbit: 517 x 521 km, 82.5° (Epoch: 10 July)

Event Time Altitude Azimuth Distance (km) Brightness Sun altitude
Rises 08:35:21 0° 1° (N) 2,630 6.5 -18.7°
Reaches altitude 10° 08:37:29 10° 4° (N) 1,750 5.6 -18.2°
Maximum altitude 08:41:18 66° 86° (E) 573 3.1 -17.4°
Drops below altitude 10° 08:45:10 10° 168° (SSE) 1,773 5.3 -16.6°
Sets 08:47:19 0° 171° (S) 2,669 6.2 -16.1°
